"Time","Temp","Dewpoint","Humidity","Pressure","Direction","Speed","Gust","Precip","PrecipRate"
"00:04:56","49.2","48.4","97","29.64","199","3.9","10.8","0.00","0.04"
"00:09:58","49.4","48.6","97","29.64","210","4.4","7.2","0.01","0.04"
"00:14:59","49.7","48.9","97","29.64","195","3.3","10.8","0.02","0.04"
"00:19:59","49.9","49.1","97","29.62","207","3.6","7.2","0.02","0.05"
"00:24:58","50","49.2","97","29.62","198","4.2","8.4","0.02","0.04"
"00:29:58","50.2","49.4","97","29.62","201","4.6","8.4","0.02","0.04"
"00:34:58","50.4","49.6","97","29.62","205","5.8","12","0.03","0.05"
"00:39:58","50.6","49.8","97","29.62","184","5.5","13.2","0.03","0.05"
"00:44:58","50.8","50","97","29.62","173","4.8","9.6","0.03","0.04"
"00:49:59","50.9","50.1","97","29.60","189","6.4","13.2","0.03","0.04"
"00:54:58","51","50.2","97","29.60","187","6.2","16.8","0.04","0.04"
"00:59:50","51.2","50.4","96.8","29.60","199","7.1","17.3","0.04","0.04"
"01:04:56","51.4","50.5","96.7","29.60","194","6.3","16.1","0.04","0.04"
"01:09:58","51.6","50.5","96","29.60","198","7.4","16.1","0.04","0.04"
"01:14:59","51.7","50.6","96","29.60","197","6","16.8","0.04","0.03"
"01:19:56","51.8","50.7","96","29.60","207","7.2","17.3","0.04","0.02"
"01:24:56","51.9","50.8","96","29.60","194","6.6","16.1","0.04","0.02"
"01:29:56","52","50.9","96","29.60","184","5.1","12","0.05","0.03"
"01:34:56","52.1","51","96","29.59","195","4.7","13.2","0.05","0.03"
"01:39:57","52.1","51","96","29.59","182","5.3","15","0.05","0.02"
"01:44:58","52.2","51.1","96","29.59","193","5","10.4","0.05","0.02"
"01:49:59","52.2","51.1","96","29.59","190","4.5","8.4","0.06","0.03"
"01:54:59","52.3","51.2","96","29.59","198","5.1","13.2","0.06","0.03"
"01:59:56","52.3","51.2","96","29.59","192","5.7","12","0.06","0.02"
"02:04:59","52.4","51.3","96","29.57","190","5.9","12","0.06","0.02"
"02:09:57","52.4","51.3","96","29.57","177","4.9","15","0.06","0.02"
"02:14:58","52.5","51.1","95.2","29.58","182","5.2","12","0.06","0.02"
"02:19:58","52.5","51.1","95","29.58","189","6.9","15","0.06","0.02"
"02:24:59","52.6","51.2","95","29.58","182","6.5","17.3","0.06","0.02"
"02:29:56","52.7","51.3","95","29.59","195","6.7","13.2","0.06","0.02"
"02:34:56","52.7","51.3","95","29.59","200","7.3","16.1","0.06","0.01"
"02:39:57","52.8","51.4","95","29.59","205","4.3","12","0.06","0.01"
"02:44:57","52.8","51.3","95","29.59","214","5.7","13.2","0.06","0.01"
"02:49:59","52.8","51.4","95","29.59","197","5.7","13.2","0.06","0.01"
"02:54:59","52.8","51.4","95","29.59","202","5.4","13.2","0.06","0.00"
"02:59:56","52.8","51.1","94.1","29.59","198","6.9","15","0.06","0.00"
"03:04:56","52.8","51.2","94.6","29.58","195","4.9","12","0.06","0.00"
"03:09:58","52.7","51.3","95","29.58","189","3.9","8.4","0.06","0.00"
"03:14:59","52.6","51.2","95","29.58","201","4.1","13.2","0.06","0.00"
"03:19:56","52.6","51.2","95","29.57","194","5","8.4","0.06","0.00"
"03:24:57","52.6","51.2","95","29.57","192","5","10.8","0.06","0.00"
"03:29:58","52.6","51.2","95","29.57","196","3.9","7.2","0.06","0.00"
"03:34:59","52.6","51.2","95","29.57","203","2.9","7.2","0.06","0.00"
"03:39:56","52.6","51.2","95","29.57","206","4.1","8.4","0.06","0.00"
"03:44:57","52.6","51.2","95","29.57","210","4.4","10.8","0.06","0.00"
"03:49:58","52.5","51.1","95","29.57","213","4.1","8.4","0.06","0.00"
"03:54:58","52.5","51.1","95","29.57","204","4.2","10.8","0.06","0.00"
"03:59:59","52.5","51.1","95","29.57","209","4.4","8.4","0.06","0.00"
"04:04:58","52.4","51","95","29.57","198","3.8","8.4","0.06","0.00"
"04:09:56","52.4","51","95","29.57","211","3.5","7.2","0.06","0.00"
"04:14:57","52.4","51","95","29.57","183","2.9","6.9","0.06","0.00"
"04:19:59","52.4","51","95","29.57","202","3.7","7.2","0.06","0.00"
"04:24:56","52.3","50.9","95","29.57","192","3.2","7.2","0.06","0.00"
"04:29:56","52.3","50.9","95","29.57","200","3.6","6","0.06","0.00"
"04:34:56","52.2","50.8","95","29.57","206","3.1","6","0.07","0.01"
"04:39:57","52.2","50.8","95","29.57","201","2.8","4.8","0.07","0.01"
"04:44:57","52.2","50.8","95","29.57","201","2.2","7.2","0.07","0.01"
"04:49:58","52.1","50.7","95","29.57","202","2.8","7.2","0.07","0.01"
"04:54:56","52.2","50.8","95","29.57","205","3","7.2","0.07","0.01"
"04:59:56","52.1","50.7","95","29.59","263","3.1","7.2","0.07","0.01"
"05:04:56","51.8","50","93.5","29.59","334","8.3","19.6","0.08","0.01"
"05:09:58","50.3","47.6","90.2","29.59","317","7.3","17.3","0.08","0.02"
"05:14:58","49.1","46.5","90.8","29.61","323","5.9","15","0.09","0.03"
"05:19:59","48.3","46","91.7","29.61","322","6.5","14.4","0.10","0.04"
"05:24:59","47.9","45.7","92","29.61","330","4.8","15","0.10","0.04"
"05:29:56","47.7","45.5","92.1","29.61","307","4.4","13.2","0.10","0.04"
"05:34:56","47.6","45.4","92","29.61","333","5.1","12","0.10","0.04"
"05:39:58","47.6","45.4","92","29.61","326","3.8","10.8","0.10","0.03"
"05:44:59","47.5","45.3","92","29.62","323","3.3","7.2","0.10","0.03"
"05:49:59","47.4","45.1","91.6","29.62","321","2.9","8.4","0.10","0.03"
"05:54:56","47.3","44.9","91.1","29.62","308","3.5","10.8","0.10","0.03"
"05:59:57","47.2","44.7","91.1","29.62","329","4.4","13.2","0.10","0.03"
"06:04:59","47.1","44.6","90.8","29.62","328","5.2","10.8","0.10","0.03"
"06:09:58","47.1","44.2","89.7","29.62","316","5.1","16.1","0.10","0.02"
"06:14:59","47.1","43.2","86.4","29.63","315","7.7","16.8","0.10","0.02"
"06:19:56","47.2","42.5","83.5","29.63","320","5","17.3","0.10","0.01"
"06:24:57","47.1","42.2","82.8","29.63","308","5.4","17.3","0.10","0.00"
"06:29:58","46.8","41.5","81.6","29.64","321","5.7","19.6","0.10","0.00"
"06:34:59","46.6","41","80.8","29.64","307","5.6","15","0.10","0.00"
"06:39:56","46.4","40.5","79.8","29.64","329","7.4","19.6","0.10","0.00"
"06:44:57","46.2","39.8","78.4","29.65","318","9.1","25.3","0.10","0.00"
"06:49:58","46","39.3","77.2","29.65","316","9.7","25.3","0.10","0.00"
"06:54:59","45.9","38.9","76.3","29.65","320","9.9","21.9","0.10","0.00"
"06:59:59","45.7","38.8","76.8","29.66","320","9.7","23","0.10","0.00"
"07:04:58","45.4","38.7","77.2","29.66","326","8.8","19.6","0.10","0.00"
"07:09:59","45.2","38.6","77.4","29.66","324","6.4","18.4","0.10","0.00"
"07:14:56","45.1","38.4","77.3","29.66","325","7","15.6","0.10","0.00"
"07:19:57","45","38.3","77.2","29.66","318","7","16.1","0.10","0.00"
"07:24:58","45","38.3","77.3","29.66","310","6","15","0.10","0.00"
"07:29:59","45","38","76.2","29.67","323","7.7","21.9","0.10","0.00"
"07:34:57","45.1","37.9","75.8","29.67","325","9.1","30","0.10","0.00"
"07:39:59","45","37.7","75.2","29.67","302","7.7","29.9","0.10","0.00"
"07:44:57","45","37.5","74.7","29.68","323","7.3","16.1","0.10","0.00"
"07:49:59","45","37.4","74.6","29.68","309","6.1","16.1","0.10","0.00"
"07:54:57","44.9","37.5","74.8","29.68","320","5.3","15","0.10","0.00"
"07:59:57","44.9","37.5","75","29.68","318","5.8","18","0.10","0.00"
"08:04:56","44.9","37.5","75.1","29.68","333","6.9","18.4","0.10","0.00"
"08:09:58","44.8","37.1","74.3","29.68","317","7.3","15","0.10","0.00"
"08:14:56","44.8","36.8","73.4","29.70","303","7.1","20.4","0.10","0.00"
"08:19:58","44.8","36.5","72.5","29.70","317","8.6","22.8","0.10","0.00"
"08:24:55","44.7","36.3","72.3","29.70","328","11.1","25.2","0.10","0.00"
"08:29:57","44.5","36.4","73","29.70","312","6.6","16.8","0.10","0.00"
"08:34:58","44.4","36.4","73.3","29.70","316","7.3","26.5","0.10","0.00"
"08:39:57","44.3","36.5","74","29.70","293","5.9","13.2","0.10","0.00"
"08:44:59","44.2","36","72.7","29.71","324","9.6","21.6","0.10","0.00"
"08:49:58","44.2","35.7","72","29.71","315","7.6","17.3","0.10","0.00"
"08:54:56","44","35.5","71.8","29.71","332","9.9","27.6","0.10","0.00"
"08:59:58","44","35.4","71.5","29.72","336","8.9","20.7","0.10","0.00"
"09:04:57","44","35.6","72","29.72","282","6.3","21.6","0.10","0.00"
"09:09:59","43.9","35.1","71.1","29.72","329","8.6","21.9","0.10","0.00"
"09:14:57","43.9","35.3","71.5","29.74","329","7.9","19.6","0.10","0.00"
"09:19:59","44.3","35.4","70.7","29.74","315","5.9","16.1","0.10","0.00"
"09:24:57","45.1","36.2","70.7","29.74","280","4.9","15.6","0.10","0.00"
"09:29:58","45.1","35.9","70","29.74","290","7.8","21.6","0.10","0.00"
"09:34:56","45.1","35.6","69.2","29.74","327","7.5","21.9","0.10","0.00"
"09:39:58","45.1","35.4","68.6","29.74","304","8.9","19.6","0.10","0.00"
"09:44:59","45.3","36","69.7","29.74","299","6.6","17.3","0.10","0.00"
"09:49:57","45.8","36.7","70.2","29.74","293","4.9","16.8","0.10","0.00"
"09:54:59","45.9","36.1","68.5","29.74","300","6.7","19.2","0.10","0.00"
"09:59:57","46","36.2","68.3","29.75","302","7.1","19.6","0.10","0.00"
"10:04:59","46.3","36.3","68.1","29.75","313","5.4","18","0.10","0.00"
"10:09:57","46.4","36.2","67.6","29.75","302","5.6","18.4","0.10","0.00"
"10:14:59","46.2","35.7","66.6","29.75","311","8.2","19.6","0.10","0.00"
"10:19:57","46.5","36.3","67.3","29.75","316","6","16.1","0.10","0.00"
"10:24:59","46.9","36.2","66.3","29.75","309","8.3","18.4","0.10","0.00"
"10:29:57","46.6","35.7","65.7","29.76","317","8.7","21.6","0.10","0.00"
"10:34:59","46.4","35.6","65.8","29.76","321","8.7","18.4","0.10","0.00"
"10:39:58","47","36.2","66","29.76","321","7.1","18.4","0.10","0.00"
"10:44:56","47","36.1","65.7","29.76","298","6.7","16.1","0.10","0.00"
"10:49:58","47.3","36.3","65.6","29.76","327","6.2","15","0.10","0.00"
"10:54:56","48.3","37.2","65.3","29.76","314","5.2","14.4","0.10","0.00"
"10:59:58","48.8","37.2","64.2","29.76","289","6.7","13.2","0.10","0.00"
"11:04:57","47.5","36.2","64.6","29.76","309","8.3","24.2","0.10","0.00"
"11:09:59","47.9","36.6","64.8","29.76","313","7.7","21.6","0.10","0.00"
"11:14:56","47.5","35.9","64","29.76","342","9","21.9","0.10","0.00"
"11:19:58","47.6","35.9","63.7","29.76","320","8.7","21.9","0.10","0.00"
"11:24:56","47.7","36.1","64","29.76","325","5.8","19.6","0.10","0.00"
"11:29:58","47.9","36.3","64","29.76","289","6","15","0.10","0.00"
"11:34:56","48.3","36.7","63.9","29.76","313","5.5","20.4","0.10","0.00"
"11:39:58","48.2","36.1","62.7","29.76","293","8.8","20.7","0.10","0.00"
"11:44:56","47.5","35.4","62.7","29.76","342","11.2","19.6","0.10","0.00"
"11:49:58","47.8","36","63.5","29.75","327","8.2","19.6","0.10","0.00"
"11:54:59","48.2","35.8","62.2","29.75","334","10.4","20.7","0.10","0.00"
"11:59:58","47.9","35.6","62.3","29.75","338","11.3","22.8","0.10","0.00"
"12:04:57","48.4","36.4","63","29.73","322","7.2","21.9","0.10","0.00"
"12:09:59","48.7","36.4","62.4","29.73","294","8.6","20.7","0.10","0.00"
"12:14:57","49.2","36.7","61.7","29.73","318","7.1","20.7","0.10","0.00"
"12:19:59","48.2","35.8","62.1","29.73","311","8.4","25.3","0.10","0.00"
"12:24:57","47.6","35.4","62.4","29.73","308","8.5","16.8","0.10","0.00"
"12:29:59","47.8","35.8","62.8","29.73","325","8.8","21.9","0.10","0.00"
"12:34:57","48.8","36.5","62.3","29.73","318","7.1","20.7","0.10","0.00"
"12:39:56","49.3","36.6","61.5","29.73","317","7.8","24","0.10","0.00"
"12:44:58","48.1","35.3","61.1","29.73","328","9.9","19.6","0.10","0.00"
"12:49:56","48.5","36.1","61.9","29.72","339","8.8","19.2","0.10","0.00"
"12:54:59","48.9","35.8","60.5","29.72","342","10.9","21.9","0.10","0.00"
"12:59:57","49","35.7","60","29.73","336","8","20.4","0.10","0.00"
"13:04:56","48.8","35.4","59.8","29.73","344","11.5","21.9","0.10","0.00"
"13:09:58","48.4","35","59.7","29.73","329","10.5","19.6","0.10","0.00"
"13:14:56","48.9","35.6","60","29.73","315","8.9","18.4","0.10","0.00"
"13:19:58","49.8","36.3","59.7","29.71","316","8","18.4","0.10","0.00"
"13:24:57","49.2","35.3","58.8","29.71","326","10.7","25.2","0.10","0.00"
"13:29:58","48.8","35.3","59.3","29.71","323","8.9","18.4","0.10","0.00"
"13:34:56","49.2","35.9","60","29.71","329","8.6","23","0.10","0.00"
"13:39:59","48.7","34.9","58.8","29.71","319","9.6","24.2","0.10","0.00"
"13:44:59","48.3","35.2","60.2","29.71","330","7.5","17.3","0.10","0.00"
"13:49:57","48.3","35.1","60.2","29.71","314","9","24","0.10","0.00"
"13:54:59","48.2","35","60.2","29.71","320","8.5","24.2","0.10","0.00"
"13:59:57","48.7","35.2","59.6","29.71","323","10.4","27.6","0.10","0.00"
"14:04:56","48.9","35.4","59.6","29.71","341","9.6","24.2","0.10","0.00"
"14:09:58","48.7","35.2","59.5","29.71","327","10.5","21.9","0.10","0.00"
"14:14:56","48.7","35.2","59.4","29.71","330","9.2","24.2","0.10","0.00"
"14:19:59","48.9","35.3","59.4","29.71","321","8.9","25.3","0.10","0.00"
"14:24:56","48.9","35.2","58.9","29.71","332","10.1","25.3","0.10","0.00"
"14:29:58","47.8","34.5","59.9","29.72","311","9.2","26.4","0.10","0.00"
"14:34:59","46.8","34","60.9","29.72","329","8.8","18.4","0.10","0.00"
"14:39:58","46.4","33.9","61.7","29.72","303","8.4","20.4","0.10","0.00"
"14:44:56","45.8","33.5","62","29.72","320","9.3","24.2","0.10","0.00"
"14:49:59","45.4","33.2","62.4","29.72","319","10.8","21.9","0.10","0.00"
"14:54:57","45.7","33.7","62.8","29.72","324","7.1","16.1","0.10","0.00"
"14:59:59","46.2","34","62.3","29.73","322","9.1","19.2","0.10","0.00"
"15:04:58","46.4","34","61.8","29.73","343","6.3","16.1","0.10","0.00"
"15:09:56","47.4","34.6","61.1","29.73","323","6.2","15","0.10","0.00"
"15:14:59","46.5","33.7","60.7","29.74","325","10.8","24.2","0.10","0.00"
"15:19:57","45.5","33","61.7","29.74","324","9.3","19.6","0.10","0.00"
"15:24:59","44.7","32.8","62.7","29.74","324","9.6","21.9","0.10","0.00"
"15:29:57","44.4","32.9","63.7","29.76","328","7.4","18.4","0.10","0.00"
"15:34:59","44.3","32.8","63.9","29.76","325","8.7","20.7","0.10","0.00"
"15:39:57","44","32.7","64.2","29.76","340","11.1","23","0.10","0.00"
"15:44:56","43.8","32.5","64.3","29.76","323","8.3","20.4","0.10","0.00"
"15:49:58","43.6","32.5","64.8","29.76","336","7.9","23","0.10","0.00"
"15:54:56","43.4","32.4","65","29.76","337","9.9","21.9","0.10","0.00"
"15:59:58","43.3","32.5","65.4","29.76","324","6.9","13.2","0.10","0.00"
"16:04:57","43.3","32.4","65.4","29.76","352","10.1","28.8","0.10","0.00"
"16:09:59","43.2","32.3","65.3","29.76","333","7.5","19.6","0.10","0.00"
"16:14:58","43.1","32.5","66","29.77","327","4.8","15","0.10","0.00"
"16:19:56","43.1","32.5","66","29.77","323","4.8","8.4","0.10","0.00"
"16:24:58","43","32.4","66.1","29.77","350","8.2","19.6","0.10","0.00"
"16:29:56","42.8","32.5","66.7","29.78","340","5.5","17.3","0.10","0.00"
"16:34:58","42.6","32.2","66.4","29.78","349","8.2","19.6","0.10","0.00"
"16:39:57","42.4","32.2","67","29.78","334","8.1","24.2","0.10","0.00"
"16:44:59","42.3","32.1","67.2","29.78","330","7.2","19.6","0.10","0.00"
"16:49:56","42.1","32.1","67.4","29.78","337","9.2","19.6","0.10","0.00"
"16:54:57","42","32.1","67.8","29.78","343","6.6","19.6","0.10","0.00"
"16:59:57","41.8","32.3","68.6","29.78","336","4.7","16.1","0.10","0.00"
"17:04:58","41.6","32.2","69","29.77","334","3.7","16.1","0.10","0.00"
"17:09:56","41.4","32","69","29.77","344","7.2","18.4","0.10","0.00"
"17:14:59","41.1","31.7","69","29.78","330","4.4","14.4","0.10","0.00"
"17:19:57","40.9","31.8","69.8","29.78","355","5.2","15","0.10","0.00"
"17:24:59","40.8","31.8","70","29.78","335","6.3","13.2","0.10","0.00"
"17:29:59","40.7","31.7","70","29.80","330","4.3","15.6","0.10","0.00"
"17:34:58","40.6","31.7","70.2","29.80","343","7.2","19.6","0.10","0.00"
"17:39:57","40.6","31.6","70","29.80","323","5.8","12.7","0.10","0.00"
"17:44:56","40.5","31.5","70","29.80","342","7.6","19.6","0.10","0.00"
"17:49:58","40.5","31.6","70.4","29.80","2","5.9","19.2","0.10","0.00"
"17:54:56","40.4","31.5","70.2","29.80","346","8.6","19.6","0.10","0.00"
"17:59:59","40.4","31.5","70.4","29.81","339","7.9","17.3","0.10","0.00"
"18:04:58","40.3","31.6","71","29.81","348","6.8","19.6","0.10","0.00"
"18:09:56","40.3","31.6","71","29.81","344","2.8","10.8","0.10","0.00"
"18:14:57","40.2","31.5","71","29.82","351","6.2","17.3","0.10","0.00"
"18:19:57","40","31.4","70.9","29.82","348","7.7","20.7","0.10","0.00"
"18:24:58","40","31.4","70.9","29.82","331","4.1","12","0.10","0.00"
"18:29:58","39.8","31.2","71","29.82","349","8.7","23","0.10","0.00"
"18:34:56","39.7","31.1","71","29.82","349","7.9","23","0.10","0.00"
"18:39:58","39.6","31","71","29.82","349","6.5","15","0.10","0.00"
"18:44:56","39.4","30.9","71.3","29.82","337","6.3","13.2","0.10","0.00"
"18:49:56","39.4","31.1","72","29.82","337","8.1","18.4","0.10","0.00"
"18:54:57","39.3","31","72","29.82","336","5.2","15","0.10","0.00"
"18:59:57","39.2","30.9","72","29.83","357","5.7","16.8","0.10","0.00"
"19:04:58","39.1","30.9","72.2","29.83","316","5.5","18.4","0.10","0.00"
"19:09:57","39.1","30.9","72.3","29.83","357","7.2","16.1","0.10","0.00"
"19:14:55","39","30.8","72.4","29.84","347","6.8","18.4","0.10","0.00"
"19:19:57","39","31","72.8","29.84","336","5.9","18.4","0.10","0.00"
"19:24:57","38.9","31","73","29.84","351","6.2","18.4","0.10","0.00"
"19:29:56","38.9","31","73","29.84","344","7.1","16.1","0.10","0.00"
"19:34:58","38.8","30.9","73","29.84","349","6","12","0.10","0.00"
"19:39:57","38.8","30.9","73","29.84","339","5.7","12","0.10","0.00"
"19:44:57","38.7","30.8","73","29.84","341","5.2","15","0.10","0.00"
"19:49:59","38.6","30.8","73.2","29.84","355","4.7","12","0.10","0.00"
"19:54:59","38.5","30.7","73.3","29.84","0","6.7","18.4","0.10","0.00"
"19:59:58","38.4","30.3","72.4","29.85","356","7.7","20.7","0.10","0.00"
"20:04:57","38.3","30.1","72","29.85","352","7.8","18.4","0.10","0.00"
"20:09:56","38.2","30.1","72.1","29.85","342","6.5","16.1","0.10","0.00"
"20:14:57","38.2","30","72.1","29.85","347","6.5","15.6","0.10","0.00"
"20:19:59","38.2","30","72.2","29.85","342","5.2","13.2","0.10","0.00"
"20:24:58","38.1","29.9","72","29.85","354","9.1","21.9","0.10","0.00"
"20:29:59","38.1","29.9","72","29.85","345","8.4","20.7","0.10","0.00"
"20:34:57","38","29.8","72","29.85","341","4.5","19.2","0.10","0.00"
"20:39:58","37.9","29.7","72","29.85","340","8.2","19.6","0.10","0.00"
"20:44:57","37.9","29.5","71.4","29.85","335","8.9","19.6","0.10","0.00"
"20:49:59","37.9","29.3","71","29.85","329","6.6","19.6","0.10","0.00"
"20:54:59","37.9","29.3","71","29.85","335","7","17.3","0.10","0.00"
"20:59:59","37.9","29.4","71.2","29.85","341","6.8","18.4","0.10","0.00"
"21:04:56","37.9","29.5","71.4","29.85","332","4.4","12.7","0.10","0.00"
"21:09:58","37.9","29.7","72","29.85","342","6","16.1","0.10","0.00"
"21:14:57","37.8","29.6","72","29.85","335","4.9","13.2","0.10","0.00"
"21:19:59","37.8","29.6","72","29.84","328","7.3","18.4","0.10","0.00"
"21:24:57","37.8","29.6","72","29.84","340","9.5","18","0.10","0.00"
"21:29:59","37.8","29.6","72","29.84","342","6.7","15","0.10","0.00"
"21:34:58","37.8","29.6","72","29.84","334","5.6","14.4","0.10","0.00"
"21:39:56","37.7","29.5","72","29.84","327","6.9","15","0.10","0.00"
"21:44:59","37.7","29.6","72.2","29.84","328","6.3","15","0.10","0.00"
"21:49:57","37.7","29.6","72.4","29.84","334","6.1","13.2","0.10","0.00"
"21:54:56","37.6","29.4","72","29.84","338","7.8","16.1","0.10","0.00"
"21:59:59","37.6","29.4","72","29.84","342","5.8","12.7","0.10","0.00"
"22:04:57","37.6","29.4","72","29.84","338","4.6","12","0.10","0.00"
"22:09:59","37.6","29.4","72","29.84","349","5","13.2","0.10","0.00"
"22:14:58","37.5","29.3","72","29.84","343","7.3","17.3","0.10","0.00"
"22:19:56","37.5","29.3","72","29.83","344","6.4","17.3","0.10","0.00"
"22:24:58","37.5","29.3","72","29.83","330","6.1","16.1","0.10","0.00"
"22:29:56","37.5","29.3","72","29.83","335","7.5","17.3","0.10","0.00"
"22:34:58","37.4","29.2","71.8","29.83","347","6.5","16.1","0.10","0.00"
"22:39:56","37.4","29","71.3","29.83","340","10.4","25.2","0.10","0.00"
"22:44:59","37.3","28.8","71","29.83","335","11.4","30","0.10","0.00"
"22:49:57","37.3","28.5","70.4","29.83","343","11.6","29.9","0.10","0.00"
"22:54:59","37.3","28.5","70.3","29.83","335","8.1","18","0.10","0.00"
"22:59:57","37.2","28.5","70.5","29.83","336","7.9","19.2","0.10","0.00"
"23:04:56","37.1","28.6","71","29.83","336","5.4","18.4","0.10","0.00"
"23:09:58","37.1","28.6","71","29.83","334","7.7","23","0.10","0.00"
"23:14:56","37","28.5","71","29.83","349","9.1","22.8","0.10","0.00"
"23:19:58","37","28.5","71","29.83","343","8.9","19.6","0.10","0.00"
"23:24:56","37","28.5","71","29.83","339","7.8","24","0.10","0.00"
"23:29:58","36.9","28.4","71","29.83","342","9.6","24.2","0.10","0.00"
"23:34:56","36.9","28.4","71","29.83","353","6.7","16.8","0.10","0.00"
"23:39:59","36.8","28.4","71.3","29.83","340","6.8","21.9","0.10","0.00"
"23:44:49","36.8","28.3","71.1","29.83","353","7.3","21.9","0.10","0.00"
